Location: Étang Rond
(42.7927°N, 1.0661°E)
Time: 23:23:42
(UTC+00:00)

Cosmos 2233 Rocket - Pass Details

Date: 08 November 2025
Orbit: 952 x 989 km, 82.9° (Epoch: 13 December)

Event Time Altitude Azimuth Distance (km) Brightness Sun altitude
Rises 05:07:45 0° 353° (N) 3,711 6.9 -17.0°
Reaches altitude 10° 05:10:18 10° 355° (N) 2,756 6.2 -16.5°
Maximum altitude 05:16:39 79° 82° (E) 1,005 4.2 -15.3°
Drops below altitude 10° 05:22:54 10° 169° (S) 2,719 6.6 -14.2°
Sets 05:25:23 0° 171° (S) 3,657 7.3 -13.8°
